GFSSW_sfc_dewp_159.txt.gz
Dewpoint
58 59 59 59 59 60 59 58 58 59 59 59 60 61 61 62 62 58 55 57 60 63 61 53 51 49 48 47 47 45 36 37 40 40 38 41 39 40 43 45 49 52 50 55 60
58 59 59 59 59 59 59 59 59 59 59 59 59 60 61 62 58 55 59 62 63 62 55 51 50 48 45 46 46 40 36 35 39 40 39 41 41 42 39 39 40 46 56 59 60
58 58 58 58 59 59 59 59 59 59 59 59 59 59 61 60 47 49 60 61 63 62 57 54 52 47 44 45 45 43 38 38 39 41 42 42 41 42 40 40 41 43 45 58 59
57 58 58 58 58 59 59 59 59 60 59 59 59 59 60 56 31 49 62 63 63 60 56 52 50 45 42 40 44 42 43 41 44 44 44 43 43 42 41 41 42 42 44 56 58
56 57 57 58 58 58 59 59 59 59 59 59 59 59 56 49 47 54 62 63 61 58 54 51 47 45 41 42 43 42 42 43 43 43 42 43 42 42 42 43 43 43 44 48 52
56 56 56 57 58 58 58 58 59 59 59 59 59 59 51 43 49 54 60 59 58 55 53 51 48 46 44 43 40 42 42 43 43 42 42 41 40 41 41 43 43 43 43 42 42
55 56 56 56 57 58 58 58 58 58 59 59 58 55 49 44 50 49 53 58 57 55 53 53 51 47 46 44 46 44 41 42 42 42 41 41 38 39 41 40 40 39 40 40 41
53 54 55 56 56 57 58 58 57 58 59 59 57 50 43 47 48 46 48 57 57 57 55 55 52 49 47 45 43 41 40 36 38 42 41 39 31 37 39 39 40 40 40 41 42
53 54 55 55 56 56 57 57 57 57 58 57 51 46 40 49 44 45 49 53 56 56 56 54 52 49 46 42 38 39 33 35 36 41 40 40 36 38 40 40 39 40 41 42 41
52 54 54 55 55 55 55 56 56 56 55 50 50 43 43 41 45 45 47 55 52 52 52 50 49 44 42 39 29 33 34 35 35 36 39 38 37 38 38 39 40 41 41 41 40
51 52 53 54 55 55 54 51 48 47 49 44 44 41 40 44 47 45 50 51 50 48 44 48 42 38 40 40 35 33 32 33 35 38 38 36 36 37 39 40 40 40 39 39 39
50 51 52 54 55 54 51 45 45 46 43 45 45 41 42 46 42 44 52 46 46 42 44 43 39 39 39 40 38 35 33 32 35 38 39 37 37 39 39 38 39 39 39 38 38
49 51 52 52 54 52 48 46 50 48 42 43 44 41 41 44 40 42 47 46 43 41 42 37 36 40 39 39 38 36 35 34 32 36 37 36 32 32 33 38 39 39 39 38 37
48 50 51 51 46 50 46 48 50 50 36 38 41 41 41 42 38 44 47 44 42 39 40 39 38 38 38 37 38 35 37 36 36 35 30 33 27 29 31 31 33 33 34 34 33
48 49 50 49 48 46 45 50 49 46 23 37 41 43 42 39 38 43 47 43 39 37 38 34 37 38 38 37 39 35 39 37 36 34 35 32 32 29 31 31 32 33 32 33 35
48 49 49 48 46 47 49 49 46 32 22 35 40 39 38 38 38 45 44 43 41 38 36 33 37 37 36 38 38 38 37 35 37 36 29 28 29 25 27 29 30 30 31 34 33
48 48 47 47 41 45 50 46 32 24 33 32 34 37 36 36 39 40 39 39 35 33 32 34 34 36 38 36 38 37 34 27 27 27 21 27 29 25 28 29 29 28 31 33 34
47 47 46 45 46 49 47 37 25 30 31 36 35 35 34 35 36 38 36 35 36 31 28 29 28 34 36 34 34 36 33 23 15 18 18 28 27 25 28 30 33 33 32 33 33
46 42 42 44 47 45 40 28 27 27 31 32 34 32 32 35 34 35 35 33 33 33 26 27 26 34 35 35 34 34 33 30 26 18 20 22 24 23 29 29 32 30 32 33 32
40 38 39 45 46 42 31 28 30 33 33 32 29 31 29 32 32 33 34 33 32 34 29 28 24 31 34 34 34 33 33 29 30 22 19 19 20 18 22 23 26 31 33 33 30
39 33 36 44 43 35 25 26 30 34 34 31 29 32 30 33 31 32 33 31 33 34 32 29 24 27 33 32 31 31 30 29 27 25 16 13 16 23 20 23 26 30 34 30 28
37 27 37 42 30 32 29 32 35 34 37 36 31 29 31 33 32 31 29 30 33 34 32 30 27 25 28 29 30 31 29 28 22 21 23 20 14 21 24 25 25 31 29 27 25
32 30 41 38 24 25 30 30 33 33 34 35 34 31 29 31 29 31 30 32 33 33 33 32 30 24 23 22 25 30 30 29 27 27 24 20 18 23 24 26 30 31 28 25 21
33 25 29 36 28 26 25 28 31 36 36 35 34 35 30 30 30 29 30 31 33 33 38 35 30 27 19 18 24 26 29 30 28 26 23 23 21 22 24 28 30 28 25 22 19
32 29 25 22 29 26 26 27 26 31 36 35 34 32 30 28 28 28 29 30 33 36 36 34 29 28 27 23 23 23 24 30 29 27 24 22 23 24 23 25 29 27 22 20 17
31 30 32 30 29 26 32 27 24 31 33 32 29 32 31 29 28 27 29 29 29 32 34 36 29 29 26 27 21 21 23 25 29 29 28 26 23 24 25 24 24 23 20 18 16
36 35 32 32 30 26 26 31 29 32 32 32 31 32 31 30 31 31 32 32 31 31 33 34 32 28 23 26 25 23 26 23 25 28 27 26 27 26 25 25 24 20 18 16 13

GFSSW_sfc_dewp_162.txt.gz
Dewpoint
59 59 59 59 60 60 60 59 58 59 59 58 59 60 61 62 62 56 53 56 58 63 61 51 48 46 47 47 47 44 36 37 40 39 38 40 37 40 42 45 48 51 49 55 60
59 59 59 59 59 60 60 60 59 59 58 58 59 59 61 62 57 54 58 62 63 62 54 49 46 45 41 44 47 41 35 35 41 40 39 40 40 40 37 39 41 44 52 58 60
58 59 59 59 59 59 60 60 60 59 59 58 59 59 60 60 47 45 61 62 63 60 56 53 50 45 40 43 44 43 33 37 39 40 42 41 40 41 39 38 39 41 44 53 57
57 58 58 58 59 59 59 60 60 59 59 59 59 59 59 56 28 52 62 63 63 58 55 52 48 42 38 35 44 38 41 39 41 44 43 41 42 40 40 39 41 42 43 48 50
57 57 58 58 58 58 59 59 59 60 59 59 59 58 56 48 42 52 61 62 60 57 53 51 46 42 34 38 43 40 42 44 44 43 43 43 42 41 41 42 43 42 44 45 46
56 56 57 57 58 57 58 59 59 59 59 59 59 58 51 39 49 54 60 59 57 54 54 52 46 44 40 39 37 41 42 42 43 42 42 41 40 41 40 42 42 43 43 42 41
55 56 56 57 58 58 58 58 58 59 59 59 58 53 47 38 48 50 55 58 58 55 54 53 50 45 45 43 45 44 40 42 42 41 39 41 36 38 37 41 40 39 40 41 41
53 54 55 56 57 58 58 58 58 57 58 58 58 50 39 46 47 47 47 57 57 56 54 55 52 49 46 46 45 39 38 28 30 40 39 37 18 36 39 39 38 39 38 40 40
53 54 54 55 56 57 57 57 57 58 57 57 52 46 39 49 44 43 46 53 56 56 55 54 53 46 47 38 34 41 27 30 32 41 38 36 28 36 39 39 38 36 36 37 38
53 53 54 54 55 56 56 56 56 57 55 53 50 42 43 40 44 44 45 53 52 52 50 49 49 44 43 38 23 25 27 32 25 36 40 38 35 37 39 37 35 35 36 36 37
51 52 53 54 55 55 55 53 49 48 50 44 45 41 40 44 45 43 47 52 52 49 43 46 42 38 38 37 32 29 30 25 34 36 36 33 33 33 36 37 37 35 34 35 35
50 52 52 53 54 55 52 46 43 46 44 46 46 42 42 45 40 43 49 45 45 41 42 43 38 36 38 40 37 34 32 31 34 37 37 33 32 35 36 37 37 35 33 34 36
50 51 52 52 53 52 49 47 49 48 41 44 45 40 41 44 39 41 46 45 42 39 41 34 34 37 39 40 38 37 34 31 30 35 36 34 28 28 31 34 36 37 37 37 35
49 50 51 52 46 46 48 49 51 51 37 39 41 42 42 43 37 43 45 42 43 37 37 38 37 39 38 36 37 34 37 36 35 34 29 31 26 27 28 28 33 34 35 33 34
48 49 50 50 45 43 48 50 51 47 23 37 41 43 42 38 39 43 45 44 38 39 39 34 38 37 38 37 39 34 38 37 37 35 34 32 31 25 31 29 29 29 33 34 34
48 49 50 48 47 47 50 50 48 33 23 36 40 39 39 38 39 44 42 43 41 38 39 34 39 38 35 38 39 39 37 37 37 34 30 28 28 18 23 24 25 29 32 34 33
48 49 47 46 42 47 48 46 31 26 35 33 35 38 37 36 38 39 39 38 33 31 31 34 35 38 38 36 39 38 33 28 28 29 22 24 26 23 26 27 29 26 33 33 33
48 48 45 44 48 47 44 36 25 32 33 35 35 37 34 36 36 38 36 34 36 32 28 29 28 35 38 33 33 37 32 25 19 20 18 28 25 23 29 26 30 32 32 33 31
47 46 43 44 47 46 35 25 28 33 33 33 34 32 33 34 36 36 35 33 34 34 24 27 25 34 36 36 34 34 34 30 25 24 23 20 25 26 30 29 30 32 33 32 31
45 42 40 46 46 43 31 27 32 35 31 32 30 31 31 34 34 33 35 33 32 35 32 28 24 32 33 35 35 33 32 30 32 23 20 17 18 15 24 26 28 31 32 31 31
43 36 40 46 44 35 27 28 32 35 35 31 29 33 31 33 32 34 33 32 33 34 34 30 27 29 33 33 31 31 30 30 28 29 20 15 12 18 19 22 24 27 31 31 30
39 29 40 44 32 32 26 30 35 34 37 35 31 31 32 34 32 31 31 31 34 34 33 31 28 25 29 30 32 32 28 29 23 24 24 19 16 21 22 22 23 27 33 31 29
35 35 42 40 25 26 31 32 32 31 34 35 31 30 30 32 31 32 31 33 33 33 32 32 30 28 27 26 27 31 32 30 28 25 25 23 18 21 22 23 25 29 33 29 25
36 28 33 36 33 27 26 28 29 32 33 34 36 31 30 30 29 31 30 32 35 34 38 34 30 28 21 18 25 27 30 31 30 29 26 23 20 20 22 24 27 31 31 26 22
34 29 32 27 28 29 26 24 24 28 30 32 35 33 30 30 29 29 31 31 33 36 36 34 32 29 28 25 22 22 25 31 30 29 25 23 23 24 24 24 28 30 29 25 21
31 30 33 29 31 28 28 24 24 26 32 30 32 33 30 31 30 29 30 30 30 33 34 36 31 30 28 28 27 24 22 26 31 30 28 27 25 24 24 25 26 30 28 24 21
36 36 34 30 30 28 27 25 22 22 29 33 35 32 31 31 33 32 32 32 32 32 33 34 32 31 26 27 27 26 28 25 24 28 27 26 26 27 27 25 26 28 27 25 21

GFSSW_sfc_dewp_165.txt.gz
Dewpoint
58 59 59 59 60 60 60 59 59 59 59 59 58 59 60 61 61 56 52 56 58 63 62 51 47 43 42 43 45 43 32 32 36 35 37 39 38 41 43 44 46 48 48 53 58
58 59 59 59 60 60 60 60 59 59 59 57 59 59 60 61 55 52 58 61 62 62 53 49 44 43 38 40 42 36 32 29 39 39 38 39 38 39 38 42 43 45 52 56 58
58 59 59 59 59 59 60 60 60 59 58 58 59 59 60 59 46 42 62 61 63 60 54 52 48 42 36 37 38 37 27 35 38 40 40 39 39 40 38 37 39 40 45 51 54
57 58 59 59 59 59 60 60 60 59 59 58 58 59 59 55 29 50 61 62 63 57 54 51 46 39 34 33 37 33 37 35 39 42 41 40 40 38 39 38 41 42 43 45 46
57 58 58 58 59 59 59 60 60 59 59 59 58 58 55 45 36 50 60 60 58 55 53 49 43 38 34 31 36 34 34 40 41 43 42 42 39 38 39 38 42 42 43 43 44
56 56 57 58 58 59 59 59 59 59 59 59 58 58 49 37 48 50 55 55 53 50 50 50 43 39 35 31 34 31 33 40 43 42 42 41 39 41 38 39 40 41 41 43 42
55 55 56 57 58 58 57 58 58 59 59 58 57 51 44 35 47 50 52 50 54 50 46 49 49 43 36 34 40 38 36 38 39 40 38 40 36 36 38 39 39 39 38 38 40
54 55 55 56 56 57 57 56 58 58 59 58 58 47 38 43 46 48 49 51 55 54 51 52 51 44 40 43 40 34 30 26 25 34 37 37 21 22 29 33 36 33 34 36 37
53 53 54 55 55 56 57 57 57 58 57 57 51 45 39 47 42 42 48 47 53 53 53 53 51 42 44 34 32 33 20 22 18 30 31 35 22 20 33 35 34 32 32 31 32
52 52 52 53 55 55 56 57 56 57 56 52 51 43 42 39 42 40 46 52 50 50 50 48 46 41 39 30 21 20 26 20 21 30 31 30 27 25 35 33 33 32 30 30 31
52 52 52 52 53 55 54 53 49 48 51 45 44 40 40 43 44 40 45 52 49 47 41 44 41 38 35 34 27 24 20 18 23 30 33 30 28 30 31 34 32 32 32 31 30
51 51 51 49 49 54 52 45 43 47 43 47 43 41 42 43 39 40 47 45 45 42 41 41 36 34 35 35 34 30 25 22 25 31 34 27 27 29 30 31 32 32 30 28 27
51 51 51 51 49 52 50 46 46 47 41 44 44 41 41 44 37 40 46 44 39 38 40 37 34 35 33 34 34 33 28 23 24 33 35 32 29 29 29 30 30 32 34 33 34
50 51 50 50 45 48 45 48 50 50 37 39 42 42 42 41 37 40 44 39 38 34 34 35 33 33 33 33 34 30 32 32 30 32 24 30 24 23 26 28 33 34 35 35 35
49 50 50 50 42 43 46 49 52 48 24 36 42 43 41 39 39 40 41 40 34 33 34 31 33 34 33 32 33 32 36 35 35 34 32 29 29 23 23 24 25 27 34 32 34
49 49 50 48 45 45 47 52 49 33 24 36 40 39 38 38 37 42 39 41 36 34 34 32 39 37 33 36 36 38 37 36 36 33 28 27 24 17 20 24 25 28 28 33 34
49 49 48 45 41 48 50 44 32 26 36 33 36 38 36 36 37 38 38 38 33 32 31 32 35 36 38 36 38 38 33 28 27 27 21 20 22 20 21 23 23 25 30 34 33
48 49 47 43 46 48 45 34 26 33 33 37 36 37 34 33 36 36 35 35 34 29 26 27 26 33 37 32 32 35 30 23 16 17 13 25 20 18 25 25 24 26 31 33 33
48 48 45 44 47 47 36 26 29 33 35 34 33 33 34 33 33 35 33 33 33 31 23 25 24 30 33 34 31 33 33 28 26 27 22 21 23 25 29 27 25 31 30 33 32
44 43 41 44 47 40 32 28 31 36 35 33 32 31 32 34 31 34 32 32 31 33 30 27 25 31 32 35 34 32 31 30 33 24 19 15 15 14 23 24 26 30 32 32 32
43 36 42 46 45 34 28 30 32 34 35 34 31 34 31 34 34 34 32 30 32 32 33 29 27 29 33 33 29 31 30 30 28 30 21 18 15 16 17 21 22 26 32 32 32
40 32 42 43 32 32 29 31 29 31 35 34 37 32 30 33 33 32 30 29 30 32 32 32 28 26 29 30 31 32 29 30 26 25 25 22 19 19 19 19 20 21 28 30 32
36 36 42 40 28 28 32 29 29 28 29 33 34 34 30 30 30 31 29 31 32 32 32 33 32 28 28 31 29 30 31 29 28 26 23 26 21 22 22 20 21 22 23 29 32
37 29 35 37 35 32 27 28 28 32 32 34 34 35 31 29 31 32 30 32 34 33 38 36 30 27 22 19 26 27 29 31 30 29 27 25 23 22 20 20 21 22 26 31 31
38 32 32 27 30 29 30 24 26 26 30 33 31 33 34 31 31 29 30 31 33 36 36 35 32 29 28 26 23 25 26 30 30 29 26 24 23 23 22 23 22 23 25 32 29
34 31 33 30 32 28 28 25 24 26 33 31 28 25 28 33 31 29 30 31 30 33 34 35 32 31 29 29 27 26 26 24 29 30 29 28 26 25 23 23 24 24 27 31 29
37 37 37 31 32 29 27 27 24 21 24 26 29 28 27 31 33 29 31 32 30 31 33 34 34 32 28 29 27 26 27 26 24 24 26 24 26 27 26 27 27 27 26 30 29

GFSSW_sfc_dewp_168.txt.gz
Dewpoint
57 59 59 59 60 60 60 60 60 59 59 59 58 59 60 61 61 57 52 57 59 63 62 53 48 45 43 46 46 45 37 35 37 37 38 39 39 42 44 44 47 49 51 55 59
57 58 58 59 59 60 60 60 60 59 59 58 59 59 60 60 56 50 60 62 62 63 54 51 47 45 40 43 43 40 35 34 40 39 38 38 39 39 40 43 45 50 53 57 58
57 58 58 59 59 59 60 60 60 59 59 58 58 59 59 59 48 46 62 61 62 60 55 53 50 44 39 41 40 40 35 37 39 41 40 40 40 40 38 39 42 47 50 54 55
56 57 58 58 59 59 59 60 59 59 59 58 58 59 58 56 33 52 59 62 63 56 54 51 47 43 38 36 37 36 36 35 41 44 42 40 40 39 39 40 42 43 46 49 50
56 57 57 58 59 59 59 60 59 59 59 58 58 58 55 45 40 52 59 59 57 54 53 49 44 41 36 32 35 37 34 38 40 44 42 43 42 39 39 40 42 42 44 43 44
55 56 56 57 57 59 59 59 60 59 59 59 58 58 52 36 49 50 53 53 52 50 50 51 46 43 37 35 32 35 33 40 43 42 42 42 40 40 40 40 41 41 42 42 43
54 55 56 56 57 58 58 58 59 59 59 58 57 51 45 38 46 50 50 51 53 50 46 49 49 47 41 36 38 38 36 37 40 41 40 41 39 38 39 38 38 39 41 40 41
54 54 55 55 56 57 58 58 58 58 58 58 58 47 41 44 47 48 47 50 53 53 53 51 53 49 42 43 40 36 33 30 33 37 38 38 31 32 36 36 37 38 37 36 38
53 54 54 55 55 56 57 57 57 58 58 57 51 46 38 48 42 44 48 45 52 53 54 52 53 44 45 38 34 34 24 25 24 31 32 37 31 27 29 32 32 33 34 33 34
52 53 54 54 54 55 56 57 56 56 56 51 50 44 42 40 42 42 46 51 50 51 51 49 46 39 39 33 23 26 24 23 22 27 32 31 31 31 33 33 32 31 30 30 30
51 52 52 53 53 53 54 53 49 48 51 45 44 42 40 43 44 40 45 51 48 47 41 45 41 37 36 35 28 24 26 25 19 28 32 31 27 27 28 34 33 33 33 32 31
51 52 52 50 50 51 52 46 45 48 43 48 45 41 42 43 39 39 48 46 46 41 40 41 37 37 35 36 34 31 27 23 23 29 32 31 28 26 26 28 31 33 31 31 32
51 51 51 50 49 49 49 47 50 49 42 45 45 42 41 43 38 38 46 45 42 39 39 37 34 36 34 34 33 33 31 25 23 31 33 33 31 30 29 27 29 30 31 32 32
51 50 50 49 45 48 44 48 51 51 37 39 42 42 42 42 38 40 44 42 39 37 38 39 36 35 32 31 33 32 33 31 29 30 27 31 25 25 24 26 27 29 31 32 34
51 50 50 47 44 43 47 49 50 47 24 39 41 44 42 38 38 40 43 42 35 33 36 33 33 34 33 33 34 32 33 32 32 32 31 29 27 26 26 26 29 32 34 35 36
50 49 49 47 45 46 51 51 49 33 23 36 40 40 39 39 39 40 39 42 38 35 34 32 39 37 34 33 34 37 36 36 35 35 30 29 27 23 23 23 24 28 33 35 34
49 49 47 45 41 48 49 44 30 26 35 34 35 39 37 37 37 38 36 38 33 32 31 31 35 36 38 34 38 37 35 29 26 27 21 22 26 23 23 23 26 28 30 34 34
49 48 46 44 46 48 46 34 23 32 32 37 35 37 35 35 35 37 36 35 35 32 30 30 29 34 37 35 34 36 34 26 18 21 18 23 20 19 28 26 24 25 33 34 33
47 46 46 46 47 47 38 26 25 32 35 34 34 33 33 34 34 35 35 34 34 33 24 27 25 34 35 33 33 34 33 30 25 23 22 22 23 25 28 26 28 31 33 33 33
43 42 42 46 46 41 32 28 31 34 34 35 32 32 29 33 31 34 33 33 34 34 32 26 25 33 33 34 33 33 33 29 29 18 16 18 18 18 25 27 26 31 31 33 33
42 36 43 45 42 34 28 29 32 35 34 31 34 34 30 31 31 33 29 31 33 32 33 30 29 31 35 33 30 31 31 31 30 28 21 17 16 17 19 21 26 26 32 33 32
41 31 43 43 32 32 29 31 29 30 34 34 34 36 33 31 32 31 30 29 31 32 31 32 31 29 32 31 33 30 29 30 26 25 26 24 22 23 21 19 20 25 31 33 33
34 34 42 40 27 28 31 29 27 28 31 32 30 33 34 33 31 31 31 32 31 32 32 32 32 27 30 32 32 30 31 30 30 29 28 24 21 23 24 23 20 22 24 32 33
37 28 34 37 35 29 26 26 25 30 32 32 31 30 32 34 33 31 30 32 33 32 39 36 32 26 20 19 29 29 29 32 30 29 26 27 25 24 25 23 21 23 23 26 32
37 30 31 27 29 28 29 26 24 25 31 33 31 30 29 28 33 30 31 31 34 36 36 36 32 29 28 26 26 27 28 29 30 29 26 24 25 26 26 25 24 22 22 26 32
33 31 32 28 30 27 26 23 23 24 29 29 27 22 31 27 28 28 32 30 31 33 33 35 29 30 28 28 28 26 28 28 29 30 29 29 27 27 27 26 25 24 25 25 31
37 37 36 30 29 27 25 23 23 24 26 27 28 27 28 30 30 32 36 37 34 32 33 34 32 30 25 27 28 27 27 27 28 29 28 27 28 29 28 27 27 27 27 27 31